West Palm Beach, FL

11:35 PM EDT on August 23, 2019 (GMT -0400)
Palm Beach International

Weather History for KPBI - June, 2019

Change the Weather History Date:

Tuesday, June 4, 2019

  Actual Average Record
Temperature  
Mean Temperature 86 °F 81 °F  
Max Temperature 91 °F 88 °F 96 °F (1945)
Min Temperature 81 °F 74 °F 62 °F (1916)
Degree Days  
Heating Degree Days 0 0  
Month to date heating degree days 0 0  
Since 1 June heating degree days 0 0  
Since 1 July heating degree days 144 233  
Cooling Degree Days 21 16  
Month to date cooling degree days 80 63  
Year to date cooling degree days 1481 1172  
Since 1 June cooling degree days 80 63  
Growing Degree Days 36 (Base 50)    
Moisture  
Dew Point 74 °F    
Average Humidity 70    
Maximum Humidity 85    
Minimum Humidity 55    
Precipitation  
Precipitation 0.02 in 0.27 in 2.62 in (1978)
Month to date precipitation 1.43 1.05  
Year to date precipitation 22.44 19.76  
Snow  
Snow 0.00 in - - ()
Month to date snowfall 0.0  
Since 1 June snowfall 0.0  
Since 1 July snowfall 0.0  
Snow Depth 0.00 in    
Sea Level Pressure  
Sea Level Pressure 30.03 in    
Wind  
Wind Speed 8 mph (SE)    
Max Wind Speed 16 mph    
Max Gust Speed 20 mph    
Visibility 10 miles    
Events Rain , Thunderstorm    
T = Trace of Precipitation, MM = Missing Value Source: NWS Daily Summary

Daily Weather History Graph

Daily Weather History Graph

Search for Another Location

Airport or City:

Astronomy

Jun. 04, 2019 Rise Set
Actual Time 6:26 AM EDT 8:10 PM EDT
Civil Twilight 6:00 AM EDT 8:36 PM EDT
Nautical Twilight 5:29 AM EDT 9:08 PM EDT
Astronomical Twilight 4:56 AM EDT 9:41 PM EDT
Moon 7:32 AM EDT (6/4) 9:37 PM EDT (6/4)
Length of Visible Light 14h 36m
Length of Day
13h 44m
New Moon, 2% of the Moon is Illuminated
Jun 4
New Moon
Jun 10
First Quarter
Jun 17
Full
Jun 25
Last Quarter
Jul 2
New

Hourly Weather History & Observations

Time (EDT) Temp. Heat Index Dew Point Humidity Pressure Visibility Wind Dir Wind Speed Gust Speed Precip Events Conditions
12:53 AM 84.0 °F 91.2 °F 73.9 °F 72% 30.02 in 10.0 mi South 6.9 mph - N/A   Mostly Cloudy
1:53 AM 82.9 °F 89.4 °F 73.9 °F 74% 30.00 in 10.0 mi South 5.8 mph - N/A   Mostly Cloudy
2:53 AM 82.9 °F 90.2 °F 75.0 °F 77% 29.99 in 10.0 mi South 6.9 mph - N/A   Mostly Cloudy
3:53 AM 82.0 °F 87.9 °F 73.9 °F 76% 29.98 in 10.0 mi South 4.6 mph - N/A   Mostly Cloudy
4:53 AM 81.0 °F 86.7 °F 75.0 °F 82% 29.98 in 10.0 mi South 4.6 mph - N/A   Scattered Clouds
5:53 AM 81.0 °F 86.7 °F 75.0 °F 82% 29.99 in 10.0 mi SSE 3.5 mph - N/A   Scattered Clouds
6:53 AM 82.0 °F 88.6 °F 75.0 °F 79% 30.01 in 10.0 mi South 3.5 mph - N/A   Scattered Clouds
7:53 AM 82.9 °F 90.2 °F 75.0 °F 77% 30.03 in 10.0 mi South 8.1 mph - N/A   Scattered Clouds
8:53 AM 86.0 °F 95.1 °F 75.0 °F 70% 30.04 in 10.0 mi South 8.1 mph - N/A   Scattered Clouds
9:53 AM 88.0 °F 97.5 °F 75.0 °F 65% 30.05 in 10.0 mi South 4.6 mph - N/A   Scattered Clouds
10:53 AM 88.0 °F 95.6 °F 73.0 °F 61% 30.05 in 10.0 mi Calm Calm - N/A   Scattered Clouds
11:53 AM 90.0 °F 102.5 °F 77.0 °F 65% 30.05 in 10.0 mi SE 10.4 mph - N/A   Scattered Clouds
12:53 PM 89.1 °F 100.2 °F 75.9 °F 65% 30.04 in 10.0 mi SE 12.7 mph - N/A   Scattered Clouds
1:02 PM 90.0 °F 101.3 °F 75.9 °F 63% 30.04 in 10.0 mi SE 12.7 mph - N/A Thunderstorm Thunderstorm
1:53 PM 84.9 °F 93.3 °F 75.0 °F 72% 30.06 in 10.0 mi ESE 12.7 mph - N/A Thunderstorm Thunderstorm
2:17 PM 84.9 °F 93.3 °F 75.0 °F 72% 30.06 in 10.0 mi East 10.4 mph - 0.00 in   Mostly Cloudy
2:53 PM 88.0 °F 96.5 °F 73.9 °F 63% 30.05 in 10.0 mi East 11.5 mph - 0.01 in   Mostly Cloudy
3:53 PM 87.1 °F 92.0 °F 70.0 °F 57% 30.04 in 10.0 mi ESE 10.4 mph - 0.01 in   Mostly Cloudy
4:53 PM 84.9 °F 90.7 °F 72.0 °F 65% 30.02 in 10.0 mi ESE 15.0 mph - N/A   Mostly Cloudy
5:53 PM 84.9 °F 91.4 °F 73.0 °F 67% 30.01 in 10.0 mi East 12.7 mph - N/A   Mostly Cloudy
6:53 PM 84.9 °F 90.7 °F 72.0 °F 65% 30.03 in 10.0 mi ESE 10.4 mph - N/A   Mostly Cloudy
7:53 PM 84.0 °F 90.2 °F 73.0 °F 69% 30.04 in 10.0 mi ESE 9.2 mph - N/A   Mostly Cloudy
8:53 PM 84.0 °F 90.2 °F 73.0 °F 69% 30.04 in 10.0 mi SE 6.9 mph - N/A   Mostly Cloudy
9:53 PM 84.0 °F 91.2 °F 73.9 °F 72% 30.03 in 10.0 mi ESE 5.8 mph - N/A   Scattered Clouds
10:53 PM 82.9 °F 89.4 °F 73.9 °F 74% 30.05 in 10.0 mi SSE 5.8 mph - N/A   Scattered Clouds
11:53 PM 82.9 °F 89.4 °F 73.9 °F 74% 30.05 in 10.0 mi SE 5.8 mph - N/A   Scattered Clouds